This is the latest recevied weather packets stored in our database for station/object DB0MW-13. If no packets are shown the sender has not sent any weather packets the latest 10 day(s).
| Time | Temp. | Humidity | Pressure | Rain* | Wind** | Luminosity | Snow |
|---|---|---|---|---|---|---|---|
| 1777808101 | 25° C | 30% | 1014.4 hPa | 0 mm | - | - | - |
| 1777807800 | 25° C | 29% | 1014.3 hPa | 0 mm | - | - | - |
| 1777807500 | 25° C | 29% | 1014.4 hPa | 0 mm | - | - | - |
| 1777807200 | 24.44° C | 29% | 1014.5 hPa | 0 mm | - | - | - |
| 1777806600 | 23.89° C | 29% | 1014.7 hPa | 0 mm | - | - | - |
| 1777806300 | 23.89° C | 29% | 1014.6 hPa | 0 mm | - | - | - |
| 1777806000 | 23.89° C | 28% | 1014.7 hPa | 0 mm | - | - | - |
| 1777805701 | 23.33° C | 28% | 1014.7 hPa | 0 mm | - | - | - |
| 1777805401 | 23.33° C | 28% | 1014.8 hPa | 0 mm | - | - | - |
| 1777805101 | 23.33° C | 29% | 1014.8 hPa | 0 mm | - | - | - |
| 1777804801 | 22.78° C | 30% | 1015 hPa | 0 mm | - | - | - |
| 1777804501 | 22.78° C | 29% | 1014.8 hPa | 0 mm | - | - | - |
| 1777804201 | 22.78° C | 29% | 1014.8 hPa | 0 mm | - | - | - |
| 1777803901 | 23.33° C | 30% | 1015.1 hPa | 0 mm | - | - | - |
| 1777803601 | 23.33° C | 28% | 1015 hPa | 0 mm | - | - | - |
| 1777803301 | 23.33° C | 27% | 1015.1 hPa | 0 mm | - | - | - |
| 1777803001 | 23.33° C | 28% | 1015.1 hPa | 0 mm | - | - | - |
| 1777802700 | 22.78° C | 31% | 1015.2 hPa | 0 mm | - | - | - |
| 1777802400 | 22.78° C | 31% | 1015.2 hPa | 0 mm | - | - | - |
| 1777802106 | 22.22° C | 33% | 1015.1 hPa | 0 mm | - | - | - |
| 1777801800 | 22.22° C | 34% | 1015.2 hPa | 0 mm | - | - | - |
| 1777801500 | 21.67° C | 35% | 1015.2 hPa | 0 mm | - | - | - |
| 1777801200 | 21.11° C | 35% | 1015.3 hPa | 0 mm | - | - | - |
| 1777800900 | 21.11° C | 35% | 1015.5 hPa | 0 mm | - | - | - |
| 1777800600 | 20.56° C | 35% | 1015.5 hPa | 0 mm | - | - | - |
* Rain latest hour (hover to see other rain measurements)
** Current wind speed in m/s (hover to see current wind gust speed)